Header for Extended Forecast Station List Page

Search by: ID | Name | Date | Parm | Value | Avg | % Avg
Sort by: ID | Name | Date | Parm | Value | Avg | % Avg

Enter search or view all records.

Click on id for station plot
#IDNameDateParmValueAvg% Avg
0HWRI1BIG LOST-AT HOWELL RANCH NEAR CHILLY07-15-2024DISCHARGE (KAF)313588
1MACI1BIG LOST-MACKAY RESERVOIR NEAR MACKAY07-15-2024INFLOW (KAF)414787
2HALI1BIG WOOD-AT HAILEY07-15-2024DISCHARGE (KAF)464895
3MAGI1BIG WOOD-MAGIC DAM07-15-2024INFLOW (KAF)172471
4BITM8BITTERROOT-NEAR MISSOULA07-15-2024DISCHARGE (KAF)18121385
5BONM8BLACKFOOT-NEAR BONNER07-15-2024DISCHARGE (KAF)10116561
6BIGI1BOISE-AT GLENWOOD BRIDGE07-15-2024DISCHARGE (KAF)8415455
7LUCI1BOISE-LUCKY PEAK DAM07-15-2024INFLOW (KAF)431397109
8PARI1BOISE-NEAR PARMA07-15-2024DISCHARGE (KAF)13819571
9HOTI1BRUNEAU-NEAR HOT SPRINGS07-15-2024DISCHARGE (KAF)2517143
10BULO3BULLY CREEK-BULLY CREEK DAM07-15-2024INFLOW (KAF)00219
11BUDW1BUMPING-BUMPING LAKE DAM07-15-2024INFLOW (KAF)182188
12CHDW1CHELAN-LAKE CHELAN DAM07-15-2024INFLOW (KAF)13623258
13ABOM8CLARK FORK-ABOVE MISSOULA07-15-2024DISCHARGE (KAF)24535669
14DLGM8CLARK FORK-AT DEER LODGE07-15-2024DISCHARGE (KAF)243667
15SRGM8CLARK FORK-AT ST REGIS07-15-2024DISCHARGE (KAF)56576474
16BELM8CLARK FORK-BELOW MISSOULA07-15-2024DISCHARGE (KAF)42658473
17CABI1CLARK FORK-CABINET GORGE DAM07-15-2024INFLOW (KAF)2523295985
18NOXM8CLARK FORK-NOXON RAPIDS DAM07-15-2024INFLOW (KAF)2288268685
19DRMM8CLARK FORK-NR DRUMMOND07-15-2024DISCHARGE (KAF)8010378
20CLUW1CLE ELUM-CLE ELUM LAKE07-15-2024INFLOW (KAF)757995
21ORFI1CLEARWATER-AT OROFINO07-15-2024DISCHARGE (KAF)44048790
22SPDI1CLEARWATER-AT SPALDING07-15-2024DISCHARGE (KAF)1796187296
23COEI1COEUR D ALENE-COEUR D ALENE LAKE07-15-2024INFLOW (KAF)20321993
24CIBW1COLUMBIA-AT INTL BOUNDARY07-15-2024DISCHARGE (KAF)194532095293
25BONO3COLUMBIA-BONNEVILLE DAM07-15-2024INFLOW (KAF)281752993794
26CHJW1COLUMBIA-CHIEF JOSEPH DAM07-15-2024INFLOW (KAF)192582042294
27GCDW1COLUMBIA-GRAND COULEE DAM07-15-2024INFLOW (KAF)2010420101100
28JDAO3COLUMBIA-JOHN DAY DAM07-15-2024INFLOW (KAF)271362849095
29MCDW1COLUMBIA-MCNARY DAM07-15-2024INFLOW (KAF)267292849594
30PRWW1COLUMBIA-PRIEST RAPIDS DAM07-15-2024INFLOW (KAF)199542190291
31RRHW1COLUMBIA-ROCKY REACH DAM07-15-2024INFLOW (KAF)197162153592
32TDAO3COLUMBIA-THE DALLES DAM07-15-2024INFLOW (KAF)277522903196
33WANW1COLUMBIA-WANAPUM DAM07-15-2024INFLOW (KAF)199512179592
34WELW1COLUMBIA-WELLS DAM07-15-2024INFLOW (KAF)195852104993
35DEDI1DEADWOOD-NEAR LOWMAN07-15-2024INFLOW (KAF)142068
36MODO3DESCHUTES-AT MOODY NR BIGGS07-15-2024DISCHARGE (KAF)1068110497
37ARDW1ENTIAT-NEAR ARDENVOIR07-15-2024DISCHARGE (KAF)263477
38CHEI1FALL RIVER-NEAR CHESTER07-15-2024DISCHARGE (KAF)679869
39CFMM8FLATHEAD-AT COLUMBIA FALLS07-15-2024DISCHARGE (KAF)12841234104
40KERM8FLATHEAD-SELI’Š KSANKA QLISPE’ DAM07-15-2024INFLOW (KAF)1395145696
41TRYO3GRANDE RONDE-TROY07-15-2024DISCHARGE (KAF)15117885
42REXI1HENRYS FORK-AT REXBURG07-15-2024DISCHARGE (KAF)407307132
43ANTI1HENRYS FORK-AT ST. ANTHONY07-15-2024DISCHARGE (KAF)342305112
44IPDI1HENRYS FORK-ISLAND PARK DAM07-15-2024INFLOW (KAF)134128105
45HODO3HOOD-NEAR TUCKER BRIDGE07-15-2024DISCHARGE (KAF)10091110
46SERO3JOHN DAY-AT SERVICE CK07-15-2024DISCHARGE (KAF)5250103
47KADW1KACHESS-KACHESS DAM07-15-2024INFLOW (KAF)202483
48LAUW1KETTLE-AT LAURIER07-15-2024DISCHARGE (KAF)11613785
49PITW1KLICKITAT-NEAR PITT07-15-2024DISCHARGE (KAF)18018896
50BFEI1KOOTENAI-AT BONNERS FERRY07-15-2024STAGE (FT)MMM
51LEOI1KOOTENAI-AT LEONIA07-15-2024DISCHARGE (KAF)22752126107
52LYDM8KOOTENAI-LIBBY DAM07-15-2024INFLOW (KAF)1612166797
53LWRI1LITTLE WOOD-LITTLE WOOD DAM07-15-2024INFLOW (KAF)101194
54BERO3MALHEUR-AGENCY VALLEY DAM07-15-2024INFLOW (KAF)71261
55WRMO3MALHEUR-WARM SPRINGS DAM07-15-2024INFLOW (KAF)6790
56MYKO3MCKAY CREEK-NEAR PILOT ROCK07-15-2024DISCHARGE (KAF)016
57PATW1METHOW-NEAR PATEROS07-15-2024DISCHARGE (KAF)10912985
58WGCM8MF FLATHEAD-NEAR WEST GLACIER07-15-2024DISCHARGE (KAF)22225089
59CLFW1NACHES-NEAR CLIFFDEL07-15-2024DISCHARGE (KAF)688283
60NACW1NACHES-NEAR NACHES07-15-2024DISCHARGE (KAF)12219662
61DWRI1NF CLEARWATER-DWORSHAK DAM07-15-2024INFLOW (KAF)25631980
62FCFM8NF FLATHEAD-NEAR COLUMBIA FALLS07-15-2024DISCHARGE (KAF)27429792
63MONO3NF JOHN DAY-AT MONUMENT07-15-2024DISCHARGE (KAF)293194
64CSDI1NF PAYETTE-CASCADE DAM07-15-2024INFLOW (KAF)6657116
65TONW1OKANOGAN-NEAR TONASKET07-15-2024DISCHARGE (KAF)19330064
66OWYO3OWYHEE-OWYHEE DAM07-15-2024INFLOW (KAF)7159120
67EMMI1PAYETTE-NEAR EMMETT07-15-2024DISCHARGE (KAF)403291139
68ALFW1PEND OREILLE-ALBENI FALLS DAM07-15-2024INFLOW (KAF)2624302087
69HOPI1PEND OREILLE-LAKE PEND OREILLE NR HOPE07-15-2024LAKE ELEVATION (FT)MMM
70PIHI1PORTNEUF-AT POCATELLO07-15-2024DISCHARGE (KAF)3523156
71PRTI1PRIEST-NEAR PRIEST RIVER07-15-2024DISCHARGE (KAF)10316762
72RCCM8ROCK CREEK-NEAR CLINTON07-15-2024DISCHARGE (KAF)556881
73WHBI1SALMON-AT WHITEBIRD07-15-2024DISCHARGE (KAF)1089115894
74ARAI1SF BOISE-ANDERSON RANCH DAM07-15-2024INFLOW (KAF)627089
75HHWM8SF FLATHEAD-HUNGRY HORSE DAM07-15-2024INFLOW (KAF)20323786
76PLDI1SF SNAKE-PALISADES DAM07-15-2024INFLOW (KAF)1219122799
77SIFI1SNAKE-AB EAGLE ROCK NR IDAHO FALLS07-15-2024DISCHARGE (KAF)14281187120
78AFRI1SNAKE-AMERICAN FALLS RESERVOIR07-15-2024INFLOW (KAF)15211188128
79SNAI1SNAKE-AT BLACKFOOT07-15-2024DISCHARGE (KAF)918664138
80MILI1SNAKE-AT MILNER07-15-2024DISCHARGE (KAF)720401805
81WEII1SNAKE-AT WEISER07-15-2024DISCHARGE (KAF)34832477141
82SWAI1SNAKE-BELOW SWAN FALLS07-15-2024DISCHARGE (KAF)24141696142
83BRNI1SNAKE-BROWNLEE DAM07-15-2024INFLOW (KAF)36262563141
84IHDW1SNAKE-ICE HARBOR DAM07-15-2024INFLOW (KAF)64336128105
85JLKW4SNAKE-JACKSON LAKE AT DAM07-15-2024INFLOW (KAF)14014795
86LGSW1SNAKE-LITTLE GOOSE DAM07-15-2024INFLOW (KAF)64276125105
87LGDW1SNAKE-LOWER GRANITE DAM07-15-2024INFLOW (KAF)64296127105
88LMNW1SNAKE-LOWER MONUMENTAL DAM07-15-2024INFLOW (KAF)64336117105
89ALPW4SNAKE-NEAR ALPINE07-15-2024DISCHARGE (KAF)87892895
90ANAW1SNAKE-NEAR ANATONE07-15-2024DISCHARGE (KAF)46334166111
91BFTI1SNAKE-NEAR BLACKFOOT07-15-2024DISCHARGE (KAF)919644143
92HEII1SNAKE-NEAR HEISE07-15-2024DISCHARGE (KAF)18921766107
93JKSW4SNAKE-NEAR JACKSON07-15-2024DISCHARGE (KAF)74879694
94SHYI1SNAKE-NEAR SHELLEY07-15-2024DISCHARGE (KAF)13181116118
95LLKW1SPOKANE-AT LONGLAKE07-15-2024INFLOW (KAF)50354792
96SPOW1SPOKANE-AT SPOKANE07-15-2024DISCHARGE (KAF)35339988
97SJMI1ST JOE-AT ST MARIES07-15-2024STAGE (FT)MMM
98SATI1ST MARIES-NEAR SANTA07-15-2024DISCHARGE (KAF)121580
99STRM8ST. REGIS-NEAR ST. REGIS07-15-2024DISCHARGE (KAF)263087
100TNAW1TEANAWAY-BELOW FORKS07-15-2024DISCHARGE (KAF)98107
101TEAI1TETON-NEAR ST. ANTHONY07-15-2024DISCHARGE (KAF)169150113
102RILW1TIETON-RIMROCK LAKE NEAR RIMROCK07-15-2024INFLOW (KAF)636695
103PDTO3UMATILLA-AT PENDLETON07-15-2024DISCHARGE (KAF)91366
104GIBO3UMATILLA-NEAR GIBBON07-15-2024DISCHARGE (KAF)91184
105UMAO3UMATILLA-NEAR UMATILLA07-15-2024DISCHARGE (KAF)5132159
106TCHW1WALLA WALLA-NEAR TOUCHET07-15-2024DISCHARGE (KAF)81077
107WSRI1WEISER-NEAR WEISER07-15-2024DISCHARGE (KAF)4746102
108PESW1WENATCHEE-AT PESHASTIN07-15-2024DISCHARGE (KAF)21425485
109UNDW1WHITE SALMON-NEAR UNDERWOOD07-15-2024DISCHARGE (KAF)161154105
110RIDI1WILLOW CREEK-RIRIE DAM07-15-2024INFLOW (KAF)126211
111EASW1YAKIMA-AT EASTON07-15-2024DISCHARGE (KAF)287339
112KIOW1YAKIMA-AT KIONA07-15-2024DISCHARGE (KAF)29742470
113UMTW1YAKIMA-AT UMTANUM07-15-2024DISCHARGE (KAF)45455582
114KEDW1YAKIMA-KEECHELUS LAKE07-15-2024INFLOW (KAF)3129109
115PARW1YAKIMA-NEAR PARKER07-15-2024DISCHARGE (KAF)2517314